Regional Weather Roundup
Issued by NWS Cleveland, OH

Home | Current Version | Previous Version | Text Only | Print | Product List | Glossary On
Versions: 1 2 3 4 5 6 7 8 9 10 11 12 13 14 15 16 17 18 19 20 21 22 23 24 25 26 27 28 29 30 31 32 33 34 35 36 37 38 39 40 41 42 43 44 45 46 47 48 49 50
000
ASUS41 KCLE 270412
RWRCLE
OHIO REGIONAL WEATHER ROUNDUP
NATIONAL WEATHER SERVICE WILMINGTON, OH
1200 AM EDT THU APR 27 2017

NOTE: "FAIR" INDICATES FEW OR NO CLOUDS BELOW 12,000 FEET WITH NO
SIGNIFICANT WEATHER AND/OR OBSTRUCTIONS TO VISIBILITY.

OHZ001>008-015>018-024>027-034-035-043-044-270500-
   NORTHWEST OHIO

CITY           SKY/WX    TMP DP  RH WIND       PRES   REMARKS
DEFIANCE       FAIR      72  54  53 S13G20    29.52F
FINDLAY        FAIR      70  48  45 S10       29.55F
TOLEDO EXPRESS FAIR      73  54  51 S8        29.53F
TOLEDO EXEC    FAIR      71  53  52 S12       29.55F
LIMA           FAIR      68  50  52 S9        29.55F
$$

OHZ009>014-019>023-028>033-038-089-270500-
   NORTHEAST OHIO

CITY           SKY/WX    TMP DP  RH WIND       PRES   REMARKS
CLE-HOPKINS    FAIR      72  50  45 SE8       29.64F
CLE-LAKEFRONT  FAIR      73  53  49 S9        29.61F
CUY CO. ARPT   NOT AVBL
LORAIN-ELYRIA  FAIR      69  51  52 S10       29.62F
ASHTABULA      FAIR      67  55  65 SE7       29.67F
AKRON-CANTON   FAIR      66  52  60 S8        29.67F
WOOSTER        FAIR      65  51  60 S9        29.65F
MANSFIELD      FAIR      69  52  54 SE10      29.63F
YOUNGSTOWN     FAIR      66  55  67 SE9       29.68S
$$

OHZ042-051>053-060>062-070>072-077>081-270500-
  SOUTHWEST OHIO

CITY           SKY/WX    TMP DP  RH WIND       PRES   REMARKS
CINC-COVINGTON CLOUDY    67  53  61 S9        29.57F
CINC-LUNKEN    FAIR      63  58  83 S3        29.58S
HAMILTON       FAIR      65  54  67 CALM      29.57F
DAYTON         MOCLDY    69  49  48 SE9       29.57F
WRIGHT-PAT AFB FAIR      69  47  45 SE3       29.57F
DAYTON GENERAL FAIR      70  50  49 SE7       29.57F
WILMINGTON     FAIR      64  53  67 SE6       29.60F
$$

OHZ036-037-039>041-045>050-054>059-063>069-073>076-082>088-270500-
  CENTRAL AND SOUTHEAST OHIO

CITY           SKY/WX    TMP DP  RH WIND       PRES   REMARKS
COLUMBUS       MOCLDY    73  53  49 SE9       29.61F
OSU AIRPORT    FAIR      69  53  56 SE5       29.61F
BOLTON FIELD   FAIR      67  52  60 SE5       29.62F
RICKENBACK AFB FAIR      68  52  58 SE6       29.61S
NEWARK         FAIR      63  52  67 CALM      29.63F
MARION         FAIR      68  50  52 S9        29.61F
LANCASTER      FAIR      67  53  61 SE6       29.63F
ZANESVILLE     FAIR      66  51  58 SE5       29.65F
NEW PHILLY     FAIR      61  54  77 SE6       29.67S
$$



USA.gov is the U.S. government's official web portal to all federal, state and local government web resources and services.